�������l�o���
Date,Time,MP-1(��Sv/h),MP-2(��Sv/h),MP-3(��Sv/h),MP-4(��Sv/h),MP-5(��Sv/h),MP-6(��Sv/h),MP-7(��Sv/h),MP-8(��Sv/h),����,����(m/s),���J
2024/01/16,00:00,0.517,0.786,0.487,0.995,0.706,0.315,0.564,0.526,���k��,7.0,��
2024/01/16,00:10,0.516,0.788,0.488,0.996,0.707,0.315,0.565,0.528,���k��,7.1,��
2024/01/16,00:20,0.517,0.785,0.489,0.995,0.708,0.316,0.564,0.527,���k��,5.5,��
2024/01/16,00:30,0.519,0.785,0.489,0.996,0.708,0.315,0.565,0.528,���k��,4.6,��
2024/01/16,00:40,0.518,0.786,0.488,0.997,0.707,0.313,0.564,0.527,�k��,6.1,��
2024/01/16,00:50,0.517,0.786,0.489,0.993,0.708,0.316,0.565,0.529,�k��,5.8,��
2024/01/16,01:00,0.520,0.785,0.489,0.996,0.708,0.314,0.566,0.527,�k��,7.3,��
2024/01/16,01:10,0.517,0.786,0.490,0.995,0.708,0.314,0.565,0.528,�k��,7.4,��
2024/01/16,01:20,0.518,0.785,0.488,0.996,0.707,0.315,0.565,0.529,�k��,7.3,��
2024/01/16,01:30,0.518,0.784,0.489,0.997,0.706,0.316,0.565,0.528,�k��,7.1,��
2024/01/16,01:40,0.518,0.786,0.489,0.996,0.708,0.316,0.567,0.528,�k��,8.2,��
2024/01/16,01:50,0.518,0.786,0.490,0.994,0.706,0.314,0.566,0.528,�k��,6.3,��
2024/01/16,02:00,0.516,0.784,0.489,0.998,0.706,0.315,0.565,0.527,�k��,7.2,��
2024/01/16,02:10,0.518,0.786,0.489,0.996,0.706,0.314,0.564,0.527,�k��,6.1,��
2024/01/16,02:20,0.517,0.784,0.489,0.996,0.706,0.314,0.565,0.527,���k��,6.3,��
2024/01/16,02:30,0.518,0.783,0.490,0.995,0.708,0.315,0.564,0.527,�k��,5.5,��
2024/01/16,02:40,0.518,0.786,0.489,0.996,0.708,0.314,0.562,0.528,�k��,5.6,��
2024/01/16,02:50,0.517,0.786,0.489,0.994,0.706,0.314,0.563,0.529,�k�k��,6.9,��
2024/01/16,03:00,0.517,0.784,0.490,0.996,0.707,0.315,0.564,0.527,�k��,7.2,��
2024/01/16,03:10,0.519,0.787,0.489,0.997,0.708,0.314,0.565,0.528,�k��,4.6,�L
2024/01/16,03:20,0.519,0.786,0.489,0.997,0.708,0.315,0.566,0.527,���k��,4.0,�L
2024/01/16,03:30,0.518,0.785,0.490,0.997,0.708,0.315,0.564,0.527,���k��,4.6,��
2024/01/16,03:40,0.520,0.786,0.491,0.995,0.707,0.314,0.566,0.527,�k��,5.0,��
2024/01/16,03:50,0.519,0.786,0.491,0.997,0.708,0.315,0.563,0.528,�k��,5.6,��
2024/01/16,04:00,0.517,0.787,0.490,0.996,0.706,0.315,0.563,0.527,���k��,4.7,��
2024/01/16,04:10,0.517,0.786,0.489,0.994,0.708,0.316,0.563,0.527,���k��,6.4,��
2024/01/16,04:20,0.518,0.783,0.488,0.998,0.708,0.315,0.564,0.527,���k��,6.1,��
2024/01/16,04:30,0.517,0.785,0.489,0.994,0.706,0.315,0.564,0.527,���k��,7.4,��
2024/01/16,04:40,0.517,0.786,0.489,0.995,0.708,0.315,0.564,0.526,���k��,7.4,��
2024/01/16,04:50,0.517,0.783,0.490,0.997,0.708,0.314,0.565,0.528,���k��,6.2,��
2024/01/16,05:00,0.518,0.785,0.488,0.995,0.706,0.313,0.564,0.527,���k��,9.0,��
2024/01/16,05:10,0.518,0.784,0.490,0.997,0.706,0.314,0.564,0.527,���k��,8.5,��
2024/01/16,05:20,0.517,0.784,0.488,0.993,0.705,0.313,0.564,0.527,���k��,7.6,��
2024/01/16,05:30,0.518,0.785,0.487,0.994,0.705,0.313,0.563,0.528,���k��,9.7,��
2024/01/16,05:40,0.516,0.785,0.488,0.995,0.704,0.313,0.561,0.527,�k��,8.8,��
2024/01/16,05:50,0.519,0.783,0.487,0.994,0.705,0.312,0.562,0.528,���k��,10.5,��
2024/01/16,06:00,0.517,0.785,0.488,0.996,0.704,0.314,0.561,0.530,���k��,7.2,��
2024/01/16,06:10,0.517,0.784,0.487,0.995,0.705,0.312,0.563,0.528,���k��,6.9,��
2024/01/16,06:20,0.518,0.785,0.487,0.995,0.706,0.313,0.560,0.528,���k��,6.3,��
2024/01/16,06:30,0.517,0.784,0.487,0.996,0.703,0.312,0.561,0.527,���k��,5.3,��
2024/01/16,06:40,0.518,0.785,0.489,0.994,0.707,0.313,0.563,0.527,���k��,8.0,��
2024/01/16,06:50,0.517,0.784,0.491,0.994,0.707,0.312,0.564,0.529,���k��,10.5,��
2024/01/16,07:00,0.517,0.785,0.488,0.997,0.704,0.315,0.563,0.528,���k��,8.8,��
2024/01/16,07:10,0.516,0.781,0.487,0.996,0.705,0.315,0.563,0.527,���k��,6.2,��
2024/01/16,07:20,0.518,0.784,0.488,0.993,0.703,0.314,0.564,0.529,���k��,8.5,��
2024/01/16,07:30,0.518,0.783,0.488,0.995,0.703,0.312,0.563,0.528,���k��,9.7,��
2024/01/16,07:40,0.517,0.780,0.488,0.994,0.703,0.312,0.564,0.526,���k��,7.5,��
2024/01/16,07:50,0.518,0.780,0.489,0.994,0.704,0.313,0.563,0.528,���k��,8.4,��
2024/01/16,08:00,0.517,0.782,0.488,0.994,0.704,0.313,0.563,0.527,�k��,6.2,��
2024/01/16,08:10,0.518,0.782,0.490,0.996,0.707,0.313,0.563,0.527,���k��,8.0,��
2024/01/16,08:20,0.519,0.783,0.489,0.995,0.705,0.314,0.565,0.528,���k��,7.7,��
2024/01/16,08:30,0.519,0.782,0.489,0.993,0.706,0.314,0.565,0.527,���k��,7.6,��
2024/01/16,08:40,0.518,0.780,0.489,0.994,0.707,0.313,0.562,0.529,���k��,10.6,��
2024/01/16,08:50,0.516,0.782,0.487,0.996,0.707,0.314,0.563,0.530,�k��,10.6,��
2024/01/16,09:00,0.517,0.783,0.488,0.995,0.705,0.314,0.564,0.529,���k��,7.3,��
2024/01/16,09:10,0.518,0.786,0.490,0.994,0.706,0.314,0.564,0.529,���k��,8.2,��
2024/01/16,09:20,0.519,0.785,0.492,0.994,0.706,0.314,0.565,0.530,�k��,11.4,��
2024/01/16,09:30,0.518,0.787,0.490,0.996,0.707,0.314,0.563,0.528,���k��,10.5,��
2024/01/16,09:40,0.518,0.784,0.489,0.995,0.707,0.313,0.565,0.528,���k��,11.6,��
2024/01/16,09:50,0.517,0.784,0.489,0.996,0.708,0.313,0.563,0.528,���k��,6.9,��
2024/01/16,10:00,0.517,0.783,0.488,0.995,0.709,0.313,0.563,0.528,�k��,10.7,��
2024/01/16,10:10,0.517,0.783,0.489,0.995,0.707,0.314,0.564,0.528,�k��,12.2,��
2024/01/16,10:20,0.519,0.786,0.488,0.997,0.707,0.313,0.563,0.530,�k��,10.9,��
2024/01/16,10:30,0.519,0.783,0.490,0.998,0.707,0.315,0.564,0.529,�k��,11.1,��
2024/01/16,10:40,0.518,0.786,0.490,0.996,0.706,0.314,0.562,0.528,���k��,9.8,��
2024/01/16,10:50,0.519,0.786,0.489,0.997,0.707,0.313,0.563,0.528,�k��,10.5,��
2024/01/16,11:00,0.518,0.787,0.490,0.999,0.707,0.314,0.564,0.529,�k��,10.0,��
2024/01/16,11:10,0.518,0.784,0.489,0.997,0.709,0.314,0.565,0.529,�k��,11.6,��
2024/01/16,11:20,0.519,0.782,0.490,0.995,0.709,0.314,0.564,0.529,�k��,9.8,��
2024/01/16,11:30,0.518,0.784,0.489,0.995,0.708,0.313,0.566,0.529,�k��,9.5,��
2024/01/16,11:40,0.518,0.786,0.490,0.997,0.707,0.315,0.566,0.530,�k��,12.4,��
2024/01/16,11:50,0.519,0.786,0.489,0.997,0.709,0.314,0.566,0.529,�k��,11.4,��
2024/01/16,12:00,0.518,0.786,0.490,0.996,0.707,0.314,0.565,0.529,�k��,8.2,��
2024/01/16,12:10,0.518,0.784,0.491,0.996,0.707,0.314,0.566,0.530,���k��,11.8,��
2024/01/16,12:20,0.518,0.785,0.491,0.996,0.706,0.315,0.565,0.529,�k��,10.5,��
2024/01/16,12:30,0.520,0.785,0.491,0.998,0.709,0.315,0.566,0.529,���k��,10.5,��
2024/01/16,12:40,0.519,0.784,0.490,0.997,0.708,0.315,0.563,0.529,���k��,9.1,��
2024/01/16,12:50,0.519,0.783,0.491,0.995,0.708,0.314,0.565,0.530,�k��,8.7,��
2024/01/16,13:00,0.519,0.783,0.490,0.996,0.709,0.313,0.564,0.529,���k��,10.3,��
2024/01/16,13:10,0.520,0.783,0.490,0.998,0.708,0.312,0.565,0.528,�k��,12.4,��
2024/01/16,13:20,0.519,0.776,0.490,0.996,0.709,0.314,0.565,0.530,���k��,9.7,��
2024/01/16,13:30,0.517,0.777,0.491,0.996,0.710,0.314,0.565,0.530,���k��,12.2,��
2024/01/16,13:40,0.520,0.784,0.490,0.996,0.706,0.314,0.565,0.527,�k��,10.2,��
2024/01/16,13:50,0.519,0.786,0.490,0.997,0.708,0.314,0.565,0.528,�k��,9.9,��
2024/01/16,14:00,0.519,0.785,0.490,0.997,0.707,0.314,0.564,0.527,�k��,7.4,��
2024/01/16,14:10,0.520,0.786,0.488,0.998,0.707,0.314,0.566,0.529,�k��,9.6,��
2024/01/16,14:20,0.519,0.786,0.489,0.999,0.705,0.314,0.565,0.530,�k��,8.5,��
2024/01/16,14:30,0.518,0.786,0.491,0.997,0.705,0.315,0.564,0.529,�k��,12.4,��
2024/01/16,14:40,0.519,0.786,0.490,0.996,0.709,0.315,0.564,0.529,���k��,7.4,��
2024/01/16,14:50,0.518,0.785,0.491,0.998,0.708,0.314,0.564,0.528,���k��,6.4,��
2024/01/16,15:00,0.517,0.787,0.492,0.997,0.709,0.314,0.564,0.527,�k��,9.4,��
2024/01/16,15:10,0.518,0.786,0.491,0.998,0.707,0.314,0.563,0.529,�k��,5.8,��
2024/01/16,15:20,0.519,0.786,0.491,0.999,0.709,0.314,0.564,0.528,�k��,7.6,��
2024/01/16,15:30,0.519,0.786,0.490,0.999,0.709,0.313,0.564,0.527,�k��,7.6,��
2024/01/16,15:40,0.520,0.787,0.489,0.997,0.710,0.313,0.564,0.528,�k��,8.2,��
2024/01/16,15:50,0.519,0.785,0.490,1.001,0.710,0.314,0.563,0.528,�k��,6.1,��
2024/01/16,16:00,0.519,0.785,0.488,0.996,0.709,0.313,0.562,0.528,���k��,6.7,��
2024/01/16,16:10,0.520,0.787,0.488,0.999,0.708,0.313,0.563,0.528,���k��,6.1,��
2024/01/16,16:20,0.519,0.787,0.489,0.998,0.709,0.313,0.563,0.527,�k��,6.0,��
2024/01/16,16:30,0.518,0.789,0.489,0.996,0.709,0.312,0.562,0.529,�k��,4.1,��
2024/01/16,16:40,0.520,0.788,0.489,0.997,0.709,0.314,0.563,0.529,�k��,6.6,��
2024/01/16,16:50,0.519,0.785,0.488,0.998,0.708,0.313,0.562,0.529,�k�k��,6.0,��
2024/01/16,17:00,0.519,0.787,0.488,0.997,0.708,0.314,0.563,0.527,�k��,4.0,��
2024/01/16,17:10,0.519,0.786,0.488,0.996,0.711,0.315,0.563,0.527,�k�k��,4.1,��
2024/01/16,17:20,0.520,0.786,0.488,0.997,0.709,0.314,0.563,0.528,�k�k��,3.9,��
2024/01/16,17:30,0.520,0.786,0.489,0.997,0.709,0.314,0.564,0.527,�k�k��,4.1,��
2024/01/16,17:40,0.517,0.785,0.488,0.997,0.709,0.313,0.564,0.527,�k�k��,4.6,��
2024/01/16,17:50,0.517,0.787,0.489,0.997,0.710,0.313,0.563,0.526,�k�k��,3.2,��
2024/01/16,18:00,0.519,0.787,0.490,0.996,0.711,0.314,0.564,0.526,�k�k��,3.0,��
2024/01/16,18:10,0.517,0.787,0.489,0.996,0.709,0.314,0.563,0.526,�k�k��,3.7,��
2024/01/16,18:20,0.517,0.786,0.489,0.996,0.709,0.315,0.563,0.526,�k�k��,3.8,��
2024/01/16,18:30,0.518,0.786,0.490,0.996,0.709,0.313,0.563,0.526,�k��,5.8,��
2024/01/16,18:40,0.519,0.787,0.490,0.998,0.709,0.314,0.563,0.526,�k��,6.7,��
2024/01/16,18:50,0.519,0.787,0.490,0.995,0.709,0.313,0.563,0.526,�k��,4.8,��
2024/01/16,19:00,0.519,0.785,0.490,0.994,0.709,0.314,0.564,0.526,���k��,5.0,��
2024/01/16,19:10,0.518,0.785,0.491,0.995,0.709,0.312,0.563,0.528,���k��,4.7,��
2024/01/16,19:20,0.517,0.784,0.490,0.996,0.709,0.315,0.564,0.525,���k��,3.3,��
2024/01/16,19:30,0.517,0.787,0.488,0.997,0.709,0.314,0.564,0.527,�k��,3.5,��
2024/01/16,19:40,0.519,0.785,0.489,0.997,0.710,0.314,0.563,0.527,�k��,4.9,��
2024/01/16,19:50,0.518,0.787,0.490,0.997,0.709,0.312,0.563,0.526,�k��,6.3,��
2024/01/16,20:00,0.519,0.786,0.491,0.998,0.710,0.314,0.563,0.527,�k��,5.3,��
2024/01/16,20:10,0.517,0.786,0.491,0.995,0.708,0.314,0.564,0.527,�k��,6.5,��
2024/01/16,20:20,0.519,0.787,0.489,0.997,0.709,0.314,0.564,0.526,�k��,6.7,��
2024/01/16,20:30,0.519,0.785,0.490,0.995,0.709,0.315,0.562,0.525,�k��,7.4,��
2024/01/16,20:40,0.516,0.786,0.489,0.996,0.710,0.313,0.563,0.526,���k��,6.4,��
2024/01/16,20:50,0.517,0.787,0.489,0.995,0.708,0.314,0.563,0.525,���k��,6.0,��
2024/01/16,21:00,0.518,0.786,0.488,0.997,0.708,0.314,0.563,0.527,���k��,7.1,��
2024/01/16,21:10,0.516,0.785,0.487,0.995,0.711,0.312,0.563,0.526,���k��,5.2,��
2024/01/16,21:20,0.517,0.785,0.489,0.998,0.709,0.314,0.564,0.526,���k��,6.0,��
2024/01/16,21:30,0.518,0.785,0.491,0.995,0.708,0.313,0.564,0.525,���k��,5.1,��
2024/01/16,21:40,0.518,0.787,0.490,0.998,0.708,0.314,0.564,0.525,�k��,4.7,��
2024/01/16,21:50,0.517,0.786,0.488,0.998,0.707,0.316,0.563,0.526,�k��,3.9,��
2024/01/16,22:00,0.519,0.785,0.489,0.998,0.711,0.315,0.564,0.525,�k��,4.0,��
2024/01/16,22:10,0.516,0.787,0.488,0.997,0.708,0.313,0.563,0.525,�k��,4.9,��
2024/01/16,22:20,0.517,0.786,0.489,0.995,0.707,0.313,0.564,0.526,�k��,4.3,��
2024/01/16,22:30,0.518,0.787,0.488,0.996,0.708,0.314,0.564,0.526,�k��,4.4,��
2024/01/16,22:40,0.518,0.786,0.490,0.997,0.709,0.313,0.563,0.524,�k��,5.1,��
2024/01/16,22:50,0.517,0.786,0.489,0.998,0.708,0.313,0.563,0.527,���k��,5.3,��
2024/01/16,23:00,0.518,0.786,0.488,0.998,0.708,0.315,0.562,0.526,�k��,5.5,��
2024/01/16,23:10,0.518,0.787,0.491,0.998,0.708,0.313,0.564,0.527,���k��,5.8,��
2024/01/16,23:20,0.519,0.785,0.489,0.998,0.709,0.314,0.563,0.526,���k��,5.7,��
2024/01/16,23:30,0.518,0.786,0.489,0.996,0.706,0.314,0.563,0.526,�k��,5.1,��
2024/01/16,23:40,0.519,0.786,0.490,0.997,0.708,0.313,0.564,0.526,���k��,4.2,��
2024/01/16,23:50,0.517,0.785,0.489,0.995,0.709,0.314,0.565,0.526,�k��,3.1,��
